Tacoma Narrows, WA

4:52 PM PST on January 18, 2018 (GMT -0800)
Tacoma Narrows

Weather History for KTIW - December, 2011

Change the Weather History Date:

Sunday, December 18, 2011

  Actual Average Record
Temperature  
Mean Temperature 40 °F -  
Max Temperature 46 °F 44 °F 52 °F (2003)
Min Temperature 35 °F 36 °F 25 °F (2008)
Degree Days  
Heating Degree Days 24    
Moisture  
Dew Point 41 °F    
Average Humidity 95    
Maximum Humidity 100    
Minimum Humidity 76    
Precipitation  
Precipitation 0.05 in - - ()
Sea Level Pressure  
Sea Level Pressure 30.26 in    
Wind  
Wind Speed 5 mph (SW)    
Max Wind Speed 13 mph    
Max Gust Speed 20 mph    
Visibility 7 miles    
Events Fog , Rain    
Averages and records for this station are not official NWS values.
T = Trace of Precipitation, MM = Missing Value Source: NWS Daily Summary

Daily Weather History Graph

Daily Weather History Graph

Search for Another Location

Airport or City:

Trip Planner

Search our weather history database for the weather conditions in past years. The results will help you decide how hot, cold, wet, or windy it might be!

Date:

Astronomy

Dec. 18, 2011 Rise Set
Actual Time 7:52 AM PST 4:21 PM PST
Civil Twilight 7:16 AM PST 4:57 PM PST
Nautical Twilight 6:37 AM PST 5:36 PM PST
Astronomical Twilight 6:00 AM PST 6:13 PM PST
Moon 12:39 AM PST (12/18) 12:07 PM PST (12/18)
Length of Visible Light 9h 40m
Length of Day
8h 28m
Last Quarter, 41% of the Moon is Illuminated
Dec 18
Last Quarter
Dec 24
New
Dec 31
First Quarter
Jan 8
Full
Jan 16
Last Quarter

Hourly Weather History & Observations

Time (PST) Temp. Windchill Dew Point Humidity Pressure Visibility Wind Dir Wind Speed Gust Speed Precip Events Conditions
12:05 AM 44.6 °F 38.4 °F 37.4 °F 76% 30.07 in 10.0 mi SSW 12.7 mph 19.6 mph N/A   Overcast
12:53 AM 44.1 °F 40.8 °F 39.0 °F 82% 30.09 in 10.0 mi SSW 5.8 mph - 0.00 in Rain Light Rain
1:23 AM 44.6 °F 40.7 °F 39.2 °F 81% 30.09 in 7.0 mi SSW 6.9 mph - 0.00 in Rain Light Rain
1:53 AM 43.0 °F 38.8 °F 41.0 °F 93% 30.11 in 7.0 mi SSW 6.9 mph - 0.03 in Rain Light Rain
2:06 AM 42.8 °F 38.0 °F 41.0 °F 93% 30.10 in 10.0 mi SSW 8.1 mph - 0.00 in Rain Light Rain
2:53 AM 42.1 °F 36.6 °F 41.0 °F 96% 30.11 in 10.0 mi South 9.2 mph - 0.00 in   Overcast
3:53 AM 43.0 °F 39.5 °F 42.1 °F 97% 30.11 in 10.0 mi SSW 5.8 mph - N/A   Overcast
4:53 AM 43.0 °F 39.5 °F 42.1 °F 97% 30.12 in 7.0 mi SW 5.8 mph - N/A   Overcast
5:17 AM 42.8 °F 39.3 °F 42.8 °F 100% 30.12 in 3.0 mi SSW 5.8 mph - N/A   Overcast
5:26 AM 42.8 °F 41.1 °F 42.8 °F 100% 30.12 in 2.0 mi SSW 3.5 mph - N/A   Overcast
5:50 AM 42.8 °F 40.1 °F 42.8 °F 100% 30.13 in 5.0 mi SSW 4.6 mph - 0.01 in   Overcast
5:53 AM 43.0 °F 39.5 °F 42.1 °F 97% 30.14 in 6.0 mi SSW 5.8 mph - 0.01 in   Overcast
6:18 AM 42.8 °F 38.6 °F 42.8 °F 100% 30.13 in 8.0 mi South 6.9 mph - N/A   Overcast
6:53 AM 43.0 °F 39.5 °F 42.1 °F 97% 30.16 in 10.0 mi SSW 5.8 mph - N/A   Overcast
7:31 AM 42.8 °F 40.1 °F 42.8 °F 100% 30.17 in 10.0 mi SSW 4.6 mph - N/A   Overcast
7:53 AM 43.0 °F 39.5 °F 42.1 °F 97% 30.19 in 10.0 mi South 5.8 mph - N/A   Overcast
8:53 AM 43.0 °F - 42.1 °F 97% 30.22 in 10.0 mi Calm Calm - 0.00 in   Overcast
9:00 AM 42.8 °F - 42.8 °F 100% 30.21 in 7.0 mi Calm Calm - N/A   Overcast
9:53 AM 42.8 °F - 42.8 °F 100% 30.24 in 10.0 mi Calm Calm - N/A   Overcast
10:22 AM 44.6 °F - 42.8 °F 93% 30.25 in 10.0 mi Calm Calm - N/A   Overcast
10:53 AM 44.6 °F - 42.8 °F 93% 30.25 in 10.0 mi Calm Calm - N/A   Overcast
11:22 AM 44.6 °F - 42.8 °F 93% 30.26 in 4.0 mi Calm Calm - N/A   Overcast
11:53 AM 44.1 °F - 43.0 °F 96% 30.27 in 4.0 mi Calm Calm - 0.01 in   Overcast
12:53 PM 44.1 °F 42.5 °F 43.0 °F 96% 30.28 in 4.0 mi West 3.5 mph - N/A   Overcast
1:53 PM 45.0 °F 42.6 °F 43.0 °F 93% 30.31 in 10.0 mi NW 4.6 mph - N/A   Overcast
2:00 PM 44.6 °F 43.1 °F 42.8 °F 93% 30.30 in 10.0 mi NW 3.5 mph - N/A   Overcast
2:53 PM 46.0 °F 43.1 °F 43.0 °F 89% 30.34 in 10.0 mi NNW 5.8 mph - N/A   Overcast
3:53 PM 45.0 °F - 42.1 °F 90% 30.33 in 10.0 mi Calm Calm - N/A   Mostly Cloudy
4:53 PM 44.6 °F - 41.0 °F 87% 30.34 in 10.0 mi Calm Calm - N/A   Mostly Cloudy
5:53 PM 39.9 °F - 39.0 °F 97% 30.37 in 10.0 mi Calm Calm - N/A   Partly Cloudy
6:53 PM 37.9 °F - 37.0 °F 97% 30.40 in 10.0 mi Calm Calm - N/A   Scattered Clouds
7:53 PM 39.0 °F - 39.0 °F 100% 30.41 in 7.0 mi Calm Calm - N/A   Scattered Clouds
8:53 PM 42.1 °F - 39.9 °F 92% 30.42 in 10.0 mi Calm Calm - N/A   Overcast
9:53 PM 37.9 °F - 37.9 °F 100% 30.44 in 3.0 mi Calm Calm - N/A   Clear
9:59 PM 37.4 °F - 37.4 °F 100% 30.43 in 1.8 mi Calm Calm - N/A   Clear
10:28 PM 35.6 °F 32.8 °F 35.6 °F 100% 30.43 in 4.0 mi WNW 3.5 mph - N/A   Clear
10:38 PM 37.4 °F - 37.4 °F 100% 30.43 in 1.5 mi Calm Calm - N/A   Partly Cloudy
10:46 PM 37.4 °F - 37.4 °F 100% 30.43 in 0.5 mi Calm Calm - N/A Fog Fog
10:53 PM 37.9 °F - 37.9 °F 100% 30.45 in 2.0 mi Calm Calm - N/A   Mostly Cloudy
11:01 PM 39.2 °F - 39.2 °F 100% 30.43 in 8.0 mi Calm Calm - N/A   Overcast
11:53 PM 39.9 °F - 39.0 °F 97% 30.44 in 9.0 mi Calm Calm - N/A   Overcast